User: anonymous   Login
Location: Black Skies Observatory
(44.7549°N, 79.7179°W)
Time: 14:55:48
(UTC-05:00)
Language:

Envisat - Orbit

View from above orbital plane
View from above orbital plane
View from above satellite
View from above satellite

Ground track
Ground track

The orbit data is extracted from the following two-line orbital elements,

1 27386U 02009A   20336.78989279  .00000048  00000-0  29271-4 0  9997
2 27386  98.1399 335.0653 0001327  90.5705  82.0877 14.38002212982599
Epoch (UTC): 01 December 2020 18:57:26
Eccentricity: 0.0001327
inclination: 98.1399°
perigee height: 764 km
apogee height: 766 km
right ascension of ascending node: 335.0653°
argument of perigee: 90.5705°
revolutions per day: 14.38002212
mean anomaly at epoch: 82.0877°
orbit number at epoch: 98259

The dashed part of the orbit path shows where the satellite is in the earth's shadow,  

DLR